Location: Nelson
(41.2830°S, 173.2830°E)
Time: 05:46:35
(UTC+13:00)

Radarsat Rocket - Pass Details

Date: 05 October 2021
Orbit: 933 x 1492 km, 100.6° (Epoch: 23 October)

Event Time Altitude Azimuth Distance (km) Brightness Sun altitude
Rises 22:03:48 0° 177° (S) 4,158 7.7 -26.5°
Reaches altitude 10° 22:07:43 10° 196° (SSW) 3,075 7.2 -27.1°
Maximum altitude 22:11:30 16° 230° (SW) 2,559 7.0 -27.7°
Drops below altitude 10° 22:15:05 10° 264° (W) 2,865 7.2 -28.2°
Sets 22:18:34 0° 285° (WNW) 3,729 7.5 -28.7°
